898  
ASUS42 KCHS 271527  
RWRCHS  
 
REGIONAL WEATHER ROUNDUP  
NATIONAL WEATHER SERVICE CHARLESTON SC  
1100 AM EDT TUE JUN 27 2017  
 
NOTE: "FAIR" INDICATES FEW OR NO CLOUDS BELOW 12,000 FEET WITH NO  
SIGNIFICANT WEATHER AND/OR S TO VISIBILITY
.  
 
NOT ALL STATIONS ARE QUALITY CONTROLLED. USE DATA WITH CAUTION...  
ESPECIALLY DEWPOINT OBSERVATIONS.  
 
SCZ027-030-031-034>040-042>050-271600-   
..SOUTHEAST SOUTH CAROLINA
 
 
 
CITY SKY/WX TMP DP RH WIND PRES REMARKS
 
N CHARLESTON PTSUNNY 83 66 56 N6 30.04S  
WATERFRONT PRK N/A 82 68 62 VRB3 30.02S  
JOHNS ISLAND FAIR 82 66 57 N6 30.04R  
PINOPOLIS N/A 79 68 69 NW5 29.98S  
MONCKS CORNER FAIR 81 63 54 N7 30.05S  
SUMMERVILLE FAIR 81 68 65 N3 30.05S  
BEAUFORT MCAS CLOUDY 84 71 65 N5 30.04S  
BEAUFORT ARPT FAIR 81 68 65 N6 30.04S  
HILTON HEAD IS MOSUNNY 82 70 65 N7 30.04S  
WALTERBORO MOSUNNY 81 64 57 N6 30.06R  
ALLENDALE FAIR 82 68 61 VRB5 30.04F  
   
..SOUTHERN MIDLANDS AND PEE DEE
 
 
 
CITY SKY/WX TMP DP RH WIND PRES REMARKS
 
GEORGETOWN FAIR 81 63 54 N3 30.05S  
KINGSTREE FAIR 81 61 50 CALM 30.05S  
ORANGEBURG MOSUNNY 83 61 47 NW5 30.05S  
BARNWELL FAIR 84 66 54 CALM 30.05F  
AIKEN FAIR 81 61 50 NW9 30.10S  
MANNING FAIR 82 68 61 N14 30.05S  
COLUMBIA CLOUDY 83 61 47 NW8 30.05S  
SUMTER PTSUNNY 82 62 50 NW6 30.03S  
FLORENCE MOSUNNY 82 62 50 W6 30.05S  
MYRTLE BEACH SUNNY 82 64 54 NW8 30.05R  
N MYRTLE BEACH MOSUNNY 82 65 56 VRB3 30.04S  
 

 
 
GAZ063-065-086>088-099>101-113>116-118-119-134>141-150-271600-   
..SOUTHEAST GEORGIA
 
 
 
CITY SKY/WX TMP DP RH WIND PRES REMARKS
 
SAVANNAH ARPT CLOUDY 83 70 64 NE6 30.04S  
HUNTER AAF CLOUDY 82 72 69 CALM 30.01F  
FORT STEWART PTSUNNY 81 72 74 N5 30.03R  
STATESBORO PTSUNNY 82 72 72 N8 30.05S  
SYLVANIA CLOUDY 83 73 72 N5 30.06S  
CLAXTON CLOUDY 81 71 71 CALM 30.05S  
   
..CSRA...CENTRAL AND FAR SOUTHEAST GEORGIA
 
 
 
CITY SKY/WX TMP DP RH WIND PRES REMARKS
 
THOMSON PTSUNNY 79 60 51 E8 30.13S  
AUGUSTA-BUSH MOSUNNY 84 67 56 VRB3 30.05R  
AUGUSTA-DANIEL CLOUDY 81 60 48 NW5 30.07S  
SWAINSBORO CLOUDY 81 70 69 NW5 30.07S  
VIDALIA PTSUNNY 82 72 69 N3 30.06S  
EASTMAN FAIR 82 64 54 NE6 30.08S  
HAZLEHURST PTSUNNY 83 74 73 CALM 30.04S HX 90  
ALMA CLOUDY 82 72 71 E3 30.04S  
WAYCROSS CLOUDY 83 78 83 NE5 30.04F HX 93  
JESUP CLOUDY 82 70 65 NE3 30.04S  
BAXLEY CLOUDY 82 79 89 CALM 30.04F HX 93  
BRUNSWICK CLOUDY 82 75 78 CALM 30.04S  
SAINT SIMONS CLOUDY 82 74 76 N6 30.02F  
 

 
 
SCZ027-028-034-036>038-045-046-048>050-GAZ119-141-271600-   
..LAKE AND SUPPLEMENTAL COASTAL OBSERVATIONS
 
 
 
STATION/POSITION TIME TEMP WIND PRES WAVE SWELL
 
AIR SEA DIR/SP/G HT/PER HT/PER/DIR  
(UTC) (F) (DEG/KT/KT) (MB) (FT/S) (FT/S/D)  
WINYAH BAY 1445 81 360/ 2 1017.0S  
LAKE MURRAY 1450 80 350/ 1/ 5 1016.9R  
ACE BASIN NERRS 1445 82 350/ 2 1017.0F  
FORT PULASKI 1500 80 83 60/ 5/ 6 1017.4  
SAPELO ISLAND 1500 84 30/ 6 1017.0  
 

 
 
ANZ835-935-AMZ111-154-330-350-352-354-370-450-454-472-271600-   
..C-MAN AND BUOY OBSERVATIONS
 
 
 
STATION/POSITION TIME TEMP WIND PRES WAVE SWELL
 
AIR SEA DIR/SP/G HT/PER HT/PER/DIR  
(UTC) (F) (DEG/KT/KT) (MB) (FT/S) (FT/S/D)  
BUOY 41004 1510 79 81 30/ 10/ 12 1016.6  
BUOY 41008 1450 78 81 40/ 6/ 8 1016.4R 1/ 8 2/140/ 8  
FOLLY BEACH CMAN 1500 81 10/ 3/ 4 1017.6F  
CAPERS NEARSHORE 1508 86 83 40/ 6/ 8 1016.9F  
FRIPP NEARSHORE 1508 80 83 40/ 8/ 10 1016.6R  
 
 
STATION/POSITION TIME TEMP WIND PRES WAVE SWELL
 
AIR SEA DIR/SP/G HT/PER HT/PER/DIR  
(UTC) (F) (DEG/KT/KT) (MB) (FT/S) (FT/S/D)  
5E ST. MARYS GA 1500 80 N/A 2/ 8  
FRYING PAN BUOY 1510 79 80 10/ 4/ 6 1017.0  
BUOY 41025 1450 78 81 350/ 8/ 10 1016.6R 2/ 7 2/ 70/ 7  
CAPE LOOKOUT NC 1500 81 360/ 2/ 3 1016.7R  
BUOY 41002 1450 77 80 260/ 10/ 12 1017.6R 3/ 5 2/230/ 5  
BUOY 41010 1510 83 84 220/ 12/ 14 1016.6  
ST AUGUSTINE FL 1500 81 78 320/ 4/ 5 1016.9F  
 

 
 
 
CLICK HERE TO GO TO PREVIOUS BULLETINS.

The Nexlab SC Page
The Nexlab GA Page Main Text Page